Regional Weather Roundup
Issued by NWS

Home | Current Version | Previous Version | Text Only | Print | Product List | Glossary Off
Versions: 1 2 3 4 5 6 7 8 9 10 11 12 13 14 15 16 17 18 19 20 21 22 23 24 25 26 27 28 29 30 31 32 33 34 35 36 37 38 39 40 41 42 43 44 45 46 47 48 49 50

000
ASUS43 KMPX 172010
RWRMN
WEATHER ROUNDUP FOR MINNESOTA
NATIONAL WEATHER SERVICE TWIN CITIES/CHANHASSEN MN
200 PM CST FRI NOV 17 2017


NOTE: "FAIR" INDICATES FEW OR NO CLOUDS BELOW 12,000 FEET WITH NO
SIGNIFICANT WEATHER AND/OR OBSTRUCTIONS TO VISIBILITY. N/A MEANS
CURRENT SKY AND/OR WEATHER CONDITIONS ARE NOT AVAILABLE.

MNZ060>063-068>070-172100-
   Twin Cities Metro

CITY           SKY/WX    TMP DP  RH WIND       PRES   REMARKS
TWIN CITIES    DRIZZLE   38  38 100 SE7       29.62F FOG
ST PAUL        FOG       37  37 100 SE5       29.64F VSB 1
CRYSTAL        CLOUDY    38  34  85 N3        29.62F FOG
BLAINE         CLOUDY    39  39 100 CALM      29.63F FOG
LAKEVILLE      DRIZZLE   36  36 100 CALM      29.61F
EDEN PRAIRIE   CLOUDY    39  37  92 E6        29.61F FOG
SOUTH ST PAUL  FOG       38  38 100 CALM      29.63S VSB 3/4
LAKE ELMO      DRIZZLE   37  36  93 CALM      29.64F
$$
MNZ001>005-007-008-013>017-022>024-027-028-172100-
   Northwest Minnesota

CITY           SKY/WX    TMP DP  RH WIND       PRES   REMARKS
BEMIDJI        MOSUNNY   36  30  79 W13       29.61S
HALLOCK        MOSUNNY   23  18  80 NW8       29.69S WCI  14
ROSEAU         MOSUNNY   27  18  69 W10       29.65S WCI  17
WARROAD        CLOUDY    28  21  74 W10       29.64R WCI  19
THIEF RVR FALL MOSUNNY   27  20  75 NW14      29.65F WCI  16
CROOKSTON      MOSUNNY   27  18  69 N14       29.67F WCI  15
FOSSTON        MOSUNNY   34  25  69 NW9       29.64F WCI  26
DETROIT LAKES  CLOUDY    36  30  80 N12       29.62F
MOORHEAD       MOSUNNY   36  23  60 N14       29.64F
PARK RAPIDS    CLOUDY    39  32  76 NW8       29.59F
MAHNOMEN       FAIR      34  27  76 N8        29.62F WCI  27
$$
MNZ006-009>011-018-025>026-172100-
   North Central Minnesota

CITY           SKY/WX    TMP DP  RH WIND       PRES   REMARKS
BAUDETTE       CLOUDY    33  28  81 NW10      29.60R WCI  25
FLAG ISLAND    CLOUDY    27  19  74 W12       29.61S WCI  16
INTL FALLS     CLOUDY    37  29  72 W9        29.60R
WASKISH        MOSUNNY   36  30  80 W10       29.62F
BIG FORK       MOSUNNY   37  32  81 SW3       29.60R
LONGVILLE      CLOUDY    36  32  87 CALM      29.62S
GRAND RAPIDS   CLOUDY    34  32  92 S5        29.63F WCI  30
CRANE LAKE     CLOUDY    34  30  86 S3        29.61F
ORR            CLOUDY    34  28  80 SW5       29.59R WCI  30
COOK           CLOUDY    34  30  86 SW6       29.63R WCI  29
WALKER         FAIR      37  30  75 NW5       29.60F
$$
MNZ012-019>021-037-172100-
   Northeast Minnesota

CITY           SKY/WX    TMP DP  RH WIND       PRES   REMARKS
DULUTH         LGT SNOW  32  32 100 SW12      29.60F FOG     WCI  23
ELY            CLOUDY    32  30  93 SW6       29.61S WCI  26
HIBBING        CLOUDY    32  31  96 CALM      29.63R FOG
EVELETH        CLOUDY    32  28  86 SW5       29.63S FOG     WCI  27
DULUTH HARBOR  LGT RAIN  36  34  93 S7        29.64F
TWO HARBORS    LGT RAIN  36  30  80 S7        29.59F
GRAND MARAIS     N/A     36  34  92 SW15      29.64F
G MARAIS ARPRT LGT SNOW  28  27  93 S6        29.59S WCI  22
$$
MNZ029>031-032-039>041-046>048-054>057-064-172100-
   West Central Minnesota

CITY           SKY/WX    TMP DP  RH WIND       PRES   REMARKS
FERGUS FALLS   CLOUDY    37  30  75 N8        29.63F
WHEATON        MOSUNNY   37  30  75 N8        29.64F
MORRIS         MOSUNNY   39  36  87 N7        29.61F
ALEXANDRIA     CLOUDY    37  34  89 N7        29.61F
ELBOW LAKE     FAIR      36  32  85 NW9       29.62F
WADENA         CLOUDY    36  32  87 NW6       29.62S
GLENWOOD       CLOUDY    37  34  87 N6        29.61F
APPLETON         N/A     43  34  70 N10       29.61S
BENSON         PTSUNNY   41  34  75 N13       29.63F
ORTONVILLE     MOSUNNY   39  34  81 MISG      29.62R
MADISON        PTSUNNY   43  36  75 N10       29.62R
WILLMAR        FAIR      43  36  75 NE3       29.60F
$$
MNZ033>034-036-042>043-049>051-058-059-172100-
   Central Minnesota

CITY           SKY/WX    TMP DP  RH WIND       PRES   REMARKS
ST CLOUD       CLOUDY    39  34  82 E5        29.61F
SAUK CENTRE    CLOUDY    36  34  92 N7        29.62F
PAYNESVILLE    DRIZZLE   40  36  86 CALM      29.60F
AITKIN         CLOUDY    34  30  86 CALM      29.63S FOG
PINE RIVER     CLOUDY    34  30  86 CALM      29.67S
BRAINERD       CLOUDY    37  33  85 N5        29.64F
STAPLES          N/A     36  34  93 E5        29.61F
LONG PRAIRIE   CLOUDY    36  34  93 W7        29.65R FOG
LITTLE FALLS   MIX PCPN  36  32  87 NW5       29.65R
LITCHFIELD     CLOUDY    43  37  81 CALM      29.60F
BUFFALO        CLOUDY    39  35  83 NE3       29.63F FOG
MAPLE LAKE     CLOUDY    41  37  84 CALM      29.63F
HUTCHINSON     PTSUNNY   44  38  79 CALM      29.61F
$$
MNZ037-044-045-052-053-172100-
   East Central Minnesota

CITY           SKY/WX    TMP DP  RH WIND       PRES   REMARKS
PRINCETON      CLOUDY    39  36  87 CALM      29.63F FOG
MORA           CLOUDY    34  32  93 CALM      29.65S FOG
CAMBRIDGE      FOG       37  37 100 CALM      29.64F VSB 3/4
RUSH CITY      CLOUDY    35  34  95 CALM      29.64F FOG
MOOSE LAKE     LGT RAIN  34  32  93 S5        29.60F WCI  30
HINCKLEY       CLOUDY    36  36 100 S5        29.63F FOG
CLOQUET        LGT SNOW  34  30  86 S6        29.61S WCI  29
MCGREGOR       CLOUDY    34  32  93 NW3       29.65R
$$
MNZ071>073-080-081-089-090-097-098-172100-
   Southwest Minnesota

CITY           SKY/WX    TMP DP  RH WIND       PRES   REMARKS
MONTEVIDEO     CLOUDY    43  34  70 N13       29.61S
GRANITE FALLS  MOSUNNY   46  36  69 NW10      29.61S
CANBY          CLOUDY    44  33  65 N10       29.62R
MARSHALL       CLOUDY    44  33  65 N8        29.60R
REDWOOD FALLS  MOSUNNY   47  35  63 N8        29.59S
OLIVIA         PTSUNNY   46  37  71 N8        29.59S
PIPESTONE      RAIN      45  36  70 NE9       29.57S
WINDOM           N/A     48  32  53 NW8       29.58S
WORTHINGTON    CLOUDY    49  40  71 N9        29.56F
JACKSON        CLOUDY    45  37  76 CALM      29.58R
SLAYTON        CLOUDY    44  36  72 N9        29.58F
$$
MNZ065>067-074>077-082>085-091>093-172100-
   South Central Minnesota

CITY           SKY/WX    TMP DP  RH WIND       PRES   REMARKS
NEW ULM        CLOUDY    45  36  70 CALM      29.58S
ST JAMES       CLOUDY    46  39  76 CALM      29.59S
FAIRMONT       CLOUDY    43  39  86 S8        29.59S
GLENCOE        CLOUDY    43  37  81 NW3       29.61R
FARIBAULT      DRIZZLE   37  37 100 SE5       29.61F
OWATONNA       DRIZZLE   37  37 100 S7        29.60F
WASECA         LGT RAIN  37  36  93 SE7       29.61F
ALBERT LEA     DRZL/FOG  37  36  93 S5        29.59S VSB 1
$$
MNZ078>079-086>088-094>096-172100-
   Southeast Minnesota

CITY           SKY/WX    TMP DP  RH WIND       PRES   REMARKS
ROCHESTER      LGT RAIN  36  36 100 S13       29.61S FOG
RED WING       DRIZZLE   37  36  93 CALM      29.63F
STANTON        DRIZZLE   38  36  92 CALM      29.61S
DODGE CENTER   DRIZZLE   36  36 100 S8        29.61R
WINONA         DRIZZLE   36  36 100 SE3       29.65F
AUSTIN         DRZL/FOG  37  36  93 S6        29.60S VSB 3/4
PRESTON        LGT RAIN  35  34  95 S12       29.62S WCI  27
$$
ABBREVIATIONS USED IN REMARKS
   TC - TEMPERATURES IN CELSIUS
  WCI - WIND CHILL INDEX
   HX - HEAT INDEX
  VSB - VISIBILITY
$$




USA.gov is the U.S. government's official web portal to all federal, state and local government web resources and services.